QPF
0.00 0.00 0.00 0.00 0.01 0.01 0.01 0.01 0.01 0.01 0.02 0.01 0.00 0.00 0.02 0.06 0.04 0.11 0.09 0.05 0.04 0.05 0.01 0.13 0.14 0.18 0.23 0.14 0.01 0.00 0.00 0.00 0.00 0.00 0.00 0.00 0.00 0.00 0.00 0.00 0.00 0.00 0.00 0.00 0.00 0.00 0.00
0.00 0.00 0.01 0.01 0.01 0.00 0.00 0.01 0.01 0.01 0.01 0.00 0.00 0.00 0.01 0.04 0.09 0.10 0.27 0.28 0.18 0.06 0.06 0.08 0.08 0.10 0.13 0.06 0.00 0.00 0.00 0.00 0.00 0.00 0.00 0.00 0.00 0.00 0.00 0.00 0.00 0.00 0.00 0.00 0.00 0.00 0.00
0.00 0.00 0.01 0.01 0.01 0.00 0.00 0.00 0.00 0.00 0.00 0.00 0.00 0.00 0.00 0.01 0.11 0.14 0.11 0.09 0.05 0.04 0.04 0.03 0.07 0.03 0.06 0.01 0.00 0.00 0.00 0.00 0.00 0.00 0.00 0.00 0.00 0.00 0.00 0.00 0.00 0.00 0.00 0.00 0.00 0.00 0.00
0.00 0.00 0.00 0.01 0.01 0.00 0.00 0.00 0.00 0.00 0.00 0.00 0.00 0.00 0.00 0.00 0.02 0.07 0.10 0.06 0.03 0.01 0.01 0.00 0.00 0.00 0.01 0.00 0.00 0.00 0.00 0.00 0.00 0.00 0.00 0.00 0.00 0.00 0.00 0.00 0.00 0.00 0.00 0.00 0.00 0.00 0.00
0.00 0.00 0.00 0.00 0.00 0.00 0.00 0.00 0.00 0.00 0.00 0.00 0.00 0.00 0.00 0.00 0.01 0.01 0.01 0.02 0.01 0.00 0.00 0.00 0.00 0.00 0.00 0.00 0.00 0.00 0.00 0.00 0.00 0.00 0.00 0.00 0.00 0.00 0.00 0.00 0.00 0.00 0.00 0.00 0.00 0.00 0.00
0.00 0.00 0.00 0.00 0.00 0.00 0.00 0.00 0.00 0.00 0.00 0.00 0.00 0.00 0.00 0.00 0.00 0.00 0.00 0.00 0.00 0.00 0.00 0.00 0.00 0.00 0.00 0.00 0.00 0.00 0.00 0.00 0.00 0.00 0.00 0.00 0.00 0.00 0.00 0.00 0.00 0.00 0.00 0.00 0.00 0.00 0.00
0.00 0.00 0.00 0.00 0.00 0.00 0.00 0.00 0.00 0.00 0.00 0.00 0.00 0.00 0.00 0.00 0.00 0.00 0.00 0.00 0.00 0.00 0.00 0.00 0.00 0.00 0.00 0.00 0.00 0.00 0.00 0.00 0.00 0.00 0.00 0.00 0.00 0.00 0.00 0.00 0.00 0.00 0.00 0.00 0.00 0.00 0.00
0.01 0.01 0.00 0.00 0.00 0.00 0.00 0.00 0.00 0.00 0.00 0.00 0.00 0.00 0.00 0.00 0.00 0.00 0.00 0.00 0.00 0.00 0.00 0.00 0.00 0.00 0.00 0.00 0.00 0.00 0.00 0.00 0.00 0.00 0.00 0.00 0.00 0.00 0.00 0.00 0.00 0.00 0.00 0.00 0.00 0.00 0.00
0.01 0.01 0.01 0.01 0.00 0.00 0.00 0.00 0.00 0.00 0.00 0.00 0.00 0.00 0.00 0.00 0.00 0.00 0.00 0.00 0.00 0.00 0.00 0.00 0.00 0.00 0.00 0.00 0.00 0.00 0.00 0.00 0.00 0.00 0.00 0.00 0.00 0.00 0.00 0.00 0.00 0.00 0.00 0.00 0.00 0.00 0.00
0.01 0.01 0.01 0.01 0.01 0.00 0.00 0.00 0.00 0.00 0.00 0.00 0.00 0.00 0.00 0.00 0.00 0.00 0.00 0.00 0.00 0.00 0.00 0.00 0.00 0.00 0.00 0.00 0.00 0.00 0.00 0.00 0.00 0.00 0.00 0.00 0.00 0.00 0.00 0.00 0.00 0.00 0.00 0.00 0.00 0.00 0.00
0.01 0.01 0.01 0.01 0.01 0.00 0.00 0.00 0.00 0.00 0.00 0.00 0.00 0.00 0.00 0.00 0.00 0.00 0.00 0.00 0.00 0.00 0.00 0.00 0.00 0.00 0.00 0.00 0.00 0.00 0.00 0.00 0.00 0.00 0.00 0.00 0.00 0.00 0.00 0.00 0.00 0.00 0.00 0.00 0.00 0.00 0.00
0.01 0.01 0.01 0.01 0.01 0.00 0.00 0.00 0.00 0.00 0.00 0.00 0.00 0.00 0.00 0.00 0.00 0.00 0.00 0.00 0.00 0.00 0.00 0.00 0.00 0.00 0.00 0.00 0.00 0.00 0.00 0.00 0.00 0.00 0.00 0.00 0.00 0.00 0.00 0.00 0.00 0.00 0.00 0.00 0.00 0.00 0.00
0.01 0.01 0.01 0.01 0.00 0.00 0.00 0.00 0.00 0.00 0.00 0.00 0.00 0.00 0.00 0.00 0.00 0.00 0.00 0.00 0.00 0.00 0.00 0.00 0.00 0.00 0.00 0.00 0.00 0.00 0.00 0.00 0.00 0.00 0.00 0.00 0.00 0.00 0.00 0.00 0.00 0.00 0.00 0.00 0.00 0.00 0.00
0.01 0.01 0.00 0.00 0.00 0.00 0.00 0.00 0.00 0.00 0.00 0.00 0.00 0.00 0.00 0.00 0.00 0.00 0.00 0.00 0.00 0.00 0.00 0.00 0.00 0.00 0.00 0.00 0.00 0.00 0.00 0.00 0.00 0.00 0.00 0.00 0.00 0.00 0.00 0.00 0.00 0.00 0.00 0.00 0.00 0.00 0.00
0.01 0.01 0.01 0.00 0.00 0.00 0.00 0.00 0.00 0.00 0.00 0.00 0.00 0.00 0.00 0.00 0.00 0.00 0.00 0.00 0.00 0.00 0.00 0.00 0.00 0.00 0.00 0.00 0.00 0.00 0.00 0.00 0.00 0.00 0.00 0.00 0.00 0.00 0.00 0.00 0.00 0.00 0.00 0.00 0.00 0.00 0.00
0.00 0.00 0.01 0.00 0.00 0.00 0.00 0.00 0.00 0.00 0.00 0.00 0.00 0.00 0.00 0.00 0.00 0.00 0.00 0.00 0.00 0.00 0.00 0.00 0.00 0.00 0.00 0.00 0.00 0.00 0.00 0.00 0.00 0.00 0.00 0.00 0.00 0.00 0.00 0.00 0.00 0.00 0.00 0.00 0.00 0.00 0.00
0.00 0.00 0.01 0.00 0.00 0.00 0.00 0.00 0.00 0.00 0.00 0.00 0.00 0.00 0.00 0.00 0.00 0.00 0.00 0.00 0.00 0.00 0.00 0.00 0.00 0.00 0.00 0.00 0.00 0.00 0.00 0.00 0.00 0.00 0.00 0.00 0.00 0.00 0.00 0.00 0.00 0.00 0.00 0.00 0.00 0.00 0.00
0.00 0.00 0.00 0.00 0.00 0.00 0.00 0.00 0.00 0.00 0.00 0.00 0.00 0.00 0.00 0.00 0.00 0.00 0.00 0.00 0.00 0.00 0.00 0.00 0.00 0.00 0.00 0.00 0.00 0.00 0.00 0.00 0.00 0.00 0.00 0.00 0.00 0.00 0.00 0.00 0.00 0.00 0.00 0.00 0.00 0.00 0.00
0.00 0.00 0.00 0.00 0.00 0.00 0.00 0.00 0.00 0.00 0.00 0.00 0.00 0.00 0.00 0.00 0.00 0.00 0.00 0.00 0.00 0.00 0.00 0.00 0.00 0.00 0.00 0.00 0.00 0.00 0.00 0.00 0.00 0.00 0.00 0.00 0.00 0.00 0.00 0.00 0.00 0.00 0.00 0.00 0.00 0.00 0.00
0.00 0.00 0.00 0.00 0.00 0.00 0.00 0.00 0.00 0.00 0.00 0.00 0.00 0.00 0.00 0.00 0.00 0.00 0.00 0.00 0.00 0.00 0.00 0.00 0.00 0.00 0.00 0.00 0.00 0.00 0.00 0.00 0.00 0.00 0.00 0.00 0.00 0.00 0.00 0.00 0.00 0.00 0.00 0.00 0.00 0.00 0.00
0.00 0.00 0.00 0.00 0.00 0.00 0.00 0.00 0.00 0.00 0.00 0.00 0.00 0.00 0.00 0.00 0.00 0.00 0.00 0.00 0.00 0.00 0.00 0.00 0.00 0.00 0.00 0.00 0.00 0.00 0.00 0.00 0.00 0.00 0.00 0.00 0.00 0.00 0.00 0.00 0.00 0.00 0.00 0.00 0.00 0.00 0.00
0.00 0.00 0.00 0.00 0.00 0.00 0.00 0.00 0.00 0.00 0.00 0.00 0.00 0.00 0.00 0.00 0.00 0.00 0.00 0.00 0.00 0.00 0.00 0.00 0.00 0.00 0.00 0.00 0.00 0.00 0.00 0.00 0.00 0.00 0.00 0.00 0.00 0.00 0.00 0.00 0.00 0.00 0.00 0.00 0.00 0.00 0.00
0.00 0.00 0.00 0.00 0.00 0.00 0.00 0.00 0.00 0.00 0.00 0.00 0.00 0.00 0.00 0.00 0.00 0.00 0.00 0.00 0.00 0.00 0.00 0.00 0.00 0.00 0.00 0.00 0.00 0.00 0.00 0.00 0.00 0.00 0.00 0.00 0.00 0.00 0.00 0.00 0.00 0.00 0.00 0.00 0.00 0.00 0.00
0.00 0.00 0.00 0.00 0.00 0.00 0.00 0.00 0.00 0.00 0.00 0.00 0.00 0.00 0.00 0.00 0.00 0.00 0.00 0.00 0.00 0.00 0.00 0.00 0.00 0.00 0.00 0.00 0.00 0.00 0.00 0.00 0.00 0.00 0.00 0.00 0.00 0.00 0.00 0.00 0.00 0.00 0.00 0.00 0.00 0.00 0.00
0.00 0.00 0.00 0.00 0.00 0.00 0.00 0.00 0.00 0.00 0.00 0.00 0.00 0.00 0.00 0.00 0.00 0.00 0.00 0.00 0.00 0.00 0.00 0.00 0.00 0.00 0.00 0.00 0.00 0.00 0.00 0.00 0.00 0.00 0.00 0.00 0.00 0.00 0.00 0.00 0.00 0.00 0.00 0.00 0.00 0.00 0.00
0.00 0.00 0.00 0.00 0.00 0.00 0.00 0.00 0.00 0.00 0.00 0.00 0.00 0.00 0.00 0.00 0.00 0.00 0.00 0.00 0.00 0.00 0.00 0.00 0.00 0.00 0.00 0.00 0.00 0.00 0.00 0.00 0.00 0.00 0.00 0.00 0.00 0.00 0.00 0.00 0.00 0.00 0.00 0.00 0.00 0.00 0.00
0.00 0.00 0.00 0.00 0.00 0.00 0.00 0.00 0.00 0.00 0.00 0.00 0.00 0.00 0.00 0.00 0.00 0.00 0.00 0.00 0.00 0.00 0.00 0.00 0.00 0.00 0.00 0.00 0.00 0.00 0.00 0.00 0.00 0.00 0.00 0.00 0.00 0.00 0.00 0.00 0.00 0.00 0.00 0.00 0.00 0.00 0.00
0.00 0.00 0.00 0.00 0.00 0.00 0.00 0.00 0.00 0.00 0.00 0.00 0.00 0.00 0.00 0.00 0.00 0.00 0.00 0.00 0.00 0.00 0.00 0.00 0.00 0.00 0.00 0.00 0.00 0.00 0.00 0.00 0.00 0.00 0.00 0.00 0.00 0.00 0.00 0.00 0.00 0.00 0.00 0.00 0.00 0.00 0.00
0.01 0.00 0.00 0.00 0.00 0.00 0.00 0.00 0.00 0.00 0.00 0.00 0.00 0.00 0.00 0.00 0.00 0.00 0.00 0.00 0.00 0.00 0.00 0.00 0.00 0.00 0.00 0.00 0.00 0.00 0.00 0.00 0.00 0.00 0.00 0.00 0.00 0.00 0.00 0.00 0.00 0.00 0.00 0.00 0.00 0.00 0.00
MSLP
1020.49 1020.14 1019.82 1019.56 1019.35 1018.88 1018.38 1017.94 1017.41 1016.70 1016.24 1015.50 1014.71 1014.06 1013.53 1012.73 1012.66 1012.08 1011.97 1012.06 1012.21 1012.35 1012.47 1012.65 1013.18 1013.23 1014.32 1015.23 1013.83 1012.89 1012.67 1012.69 1013.12 1013.57 1013.43 1013.73 1014.14 1014.34 1014.77 1015.23 1015.61 1016.35 1016.66 1016.74 1016.79 1016.43 1016.31
1020.65 1020.21 1020.04 1019.80 1019.43 1019.03 1018.61 1018.22 1017.72 1017.04 1016.42 1015.79 1015.05 1014.60 1013.95 1013.39 1012.77 1012.66 1011.87 1011.89 1012.45 1012.77 1013.14 1013.22 1014.05 1014.37 1014.46 1015.21 1012.85 1012.69 1012.60 1012.87 1013.32 1013.41 1013.32 1013.53 1013.72 1013.98 1014.89 1015.69 1016.02 1016.68 1016.88 1017.17 1017.11 1016.87 1016.75
1020.79 1020.49 1020.26 1020.01 1019.62 1019.24 1018.82 1018.49 1018.03 1017.47 1016.81 1016.29 1015.56 1015.19 1014.36 1014.08 1013.75 1013.32 1013.00 1012.74 1013.40 1013.52 1013.25 1013.93 1014.14 1014.01 1015.09 1013.53 1012.63 1012.31 1012.65 1013.01 1013.02 1013.00 1013.09 1013.18 1013.36 1014.14 1014.88 1016.05 1016.69 1017.00 1017.48 1017.39 1017.68 1017.49 1017.29
1021.00 1020.67 1020.46 1020.20 1019.86 1019.42 1019.00 1018.66 1018.37 1017.81 1017.27 1016.70 1015.95 1015.36 1014.95 1014.58 1014.39 1014.31 1014.03 1013.82 1013.94 1014.17 1014.37 1014.29 1013.95 1014.19 1013.74 1012.24 1012.22 1012.36 1012.81 1012.86 1012.78 1012.76 1012.77 1012.93 1013.32 1014.44 1015.27 1016.24 1017.07 1017.67 1017.91 1018.27 1018.28 1017.97 1017.66
1021.04 1020.80 1020.56 1020.34 1019.97 1019.59 1019.26 1018.90 1018.60 1018.10 1017.47 1016.96 1016.25 1015.84 1015.16 1015.01 1014.77 1014.72 1014.69 1014.41 1014.07 1014.30 1014.11 1014.11 1014.34 1013.86 1013.13 1012.19 1012.42 1012.51 1012.52 1012.58 1012.63 1012.79 1012.92 1013.14 1013.73 1015.55 1016.33 1017.13 1018.29 1018.74 1018.81 1018.76 1018.66 1018.38 1018.16
1021.09 1020.82 1020.63 1020.41 1020.02 1019.69 1019.40 1019.08 1018.78 1018.37 1017.82 1017.22 1016.56 1016.12 1015.71 1015.15 1014.79 1014.58 1014.50 1014.73 1014.50 1014.23 1013.96 1013.77 1013.22 1013.45 1013.07 1013.01 1012.68 1012.61 1012.48 1012.52 1012.73 1013.05 1013.63 1014.29 1015.48 1016.71 1017.78 1017.92 1018.59 1019.07 1019.24 1019.13 1018.83 1018.77 1018.55
1021.29 1020.97 1020.66 1020.44 1020.09 1019.76 1019.45 1019.19 1018.91 1018.56 1018.11 1017.61 1016.98 1016.47 1015.88 1015.49 1014.92 1014.68 1014.28 1014.59 1015.00 1014.73 1014.31 1014.63 1014.38 1013.71 1013.27 1013.05 1012.67 1013.10 1013.03 1012.67 1013.08 1013.79 1015.34 1016.03 1017.21 1018.09 1018.58 1018.37 1018.26 1018.51 1018.90 1019.21 1019.28 1019.14 1019.13
1021.41 1021.09 1020.75 1020.39 1020.11 1019.81 1019.50 1019.25 1018.97 1018.69 1018.25 1017.76 1017.41 1016.79 1016.28 1015.69 1015.29 1014.98 1015.13 1016.26 1016.95 1017.17 1015.89 1014.56 1014.25 1013.91 1013.61 1013.38 1013.44 1013.62 1013.13 1013.73 1014.47 1015.79 1016.31 1017.30 1018.49 1018.91 1018.88 1018.61 1018.63 1018.87 1019.37 1019.85 1019.80 1019.64 1019.85
1021.54 1021.19 1020.81 1020.44 1020.04 1019.77 1019.51 1019.27 1018.90 1018.75 1018.43 1018.04 1017.56 1017.20 1016.64 1016.01 1015.74 1015.83 1016.42 1017.04 1017.07 1017.13 1016.71 1015.19 1014.68 1014.22 1014.17 1013.85 1014.62 1014.55 1014.19 1014.80 1015.99 1016.99 1017.59 1018.49 1019.37 1018.98 1019.11 1019.32 1019.24 1020.17 1020.03 1020.24 1020.26 1020.47 1020.62
1021.67 1021.36 1020.94 1020.52 1020.08 1019.69 1019.38 1019.15 1018.88 1018.54 1018.47 1018.10 1017.66 1017.27 1016.73 1015.85 1015.90 1016.71 1017.09 1017.15 1017.01 1017.12 1017.34 1016.70 1015.09 1014.47 1014.26 1014.29 1014.95 1015.00 1014.92 1015.46 1017.00 1018.19 1018.73 1019.64 1019.71 1019.50 1019.61 1020.02 1020.11 1020.49 1020.53 1020.62 1021.05 1021.71 1022.06
1021.81 1021.45 1021.06 1020.60 1020.18 1019.69 1019.33 1019.06 1018.78 1018.51 1018.30 1018.18 1017.89 1017.48 1017.04 1016.46 1016.72 1017.01 1017.66 1017.28 1017.09 1017.31 1017.91 1017.31 1015.64 1014.36 1014.45 1014.79 1015.45 1015.35 1015.33 1015.82 1017.79 1019.03 1019.38 1020.85 1020.45 1020.27 1020.23 1020.75 1020.48 1020.91 1021.00 1021.48 1022.11 1022.81 1023.25
1021.97 1021.54 1021.16 1020.73 1020.27 1019.83 1019.43 1019.03 1018.75 1018.46 1018.27 1018.10 1017.93 1017.69 1017.34 1017.21 1017.35 1017.34 1017.25 1017.24 1017.43 1018.05 1019.08 1017.60 1016.15 1015.32 1015.25 1015.49 1015.86 1015.95 1016.05 1016.37 1018.06 1019.29 1019.92 1020.90 1020.64 1020.87 1020.86 1020.87 1020.64 1020.95 1021.54 1022.45 1023.42 1024.26 1025.02
1022.12 1021.71 1021.25 1020.84 1020.41 1019.96 1019.48 1019.07 1018.70 1018.44 1018.25 1018.06 1017.85 1017.63 1017.38 1017.45 1017.71 1017.34 1017.41 1017.78 1018.37 1019.16 1019.80 1018.33 1017.22 1016.47 1016.35 1016.60 1016.72 1016.87 1017.33 1017.96 1018.99 1020.09 1021.53 1021.36 1021.56 1021.35 1021.10 1021.09 1021.09 1021.37 1022.33 1024.04 1025.47 1025.94 1026.40
1022.25 1021.89 1021.43 1020.98 1020.56 1020.08 1019.53 1019.05 1018.73 1018.49 1018.23 1018.05 1017.85 1017.67 1017.59 1017.48 1017.56 1017.43 1017.57 1018.11 1019.65 1020.41 1019.50 1018.28 1017.58 1017.17 1017.30 1017.23 1017.37 1017.60 1018.12 1019.10 1019.41 1019.90 1021.72 1022.14 1022.50 1021.98 1021.73 1021.65 1021.53 1022.08 1022.74 1024.12 1025.60 1026.96 1026.75
1022.22 1021.99 1021.60 1021.23 1020.77 1020.26 1019.67 1019.17 1018.81 1018.52 1018.33 1017.97 1017.70 1018.00 1017.97 1017.68 1017.47 1017.46 1018.07 1019.08 1020.37 1020.04 1019.19 1018.30 1017.65 1017.66 1017.74 1017.55 1017.67 1018.10 1018.99 1019.67 1019.86 1019.91 1020.47 1021.63 1022.41 1022.26 1021.97 1021.75 1021.92 1022.40 1023.13 1023.97 1025.40 1027.44 1027.01
1022.21 1021.98 1021.69 1021.40 1020.96 1020.45 1019.91 1019.39 1019.00 1018.66 1018.42 1018.28 1018.30 1018.37 1018.28 1017.73 1017.64 1017.86 1018.63 1019.88 1019.99 1019.43 1018.65 1018.16 1018.01 1017.91 1018.17 1018.07 1018.17 1018.57 1019.34 1019.77 1019.76 1019.70 1019.85 1021.00 1022.10 1022.51 1022.17 1021.96 1022.18 1022.33 1023.16 1023.99 1025.08 1026.55 1026.53
1022.15 1021.97 1021.75 1021.48 1021.10 1020.66 1020.15 1019.67 1019.26 1018.90 1018.56 1018.32 1018.75 1018.55 1017.92 1017.63 1017.80 1018.34 1019.87 1019.92 1019.42 1018.69 1018.23 1017.90 1017.92 1018.01 1018.23 1018.34 1018.59 1019.17 1019.88 1019.98 1019.82 1019.69 1019.68 1020.48 1021.21 1022.99 1022.63 1022.46 1022.43 1022.92 1023.21 1024.03 1024.86 1025.51 1025.81
1022.17 1021.91 1021.79 1021.54 1021.27 1020.85 1020.39 1019.85 1019.40 1019.06 1018.67 1018.44 1019.02 1019.09 1018.04 1017.63 1018.52 1019.66 1020.19 1019.72 1019.16 1018.79 1018.24 1017.89 1017.79 1017.82 1018.05 1018.34 1018.89 1019.35 1019.81 1020.03 1020.01 1019.98 1020.30 1020.79 1021.58 1022.80 1022.75 1022.52 1022.48 1022.59 1022.99 1023.59 1024.71 1025.43 1025.55
1022.20 1021.95 1021.73 1021.70 1021.43 1021.07 1020.60 1020.10 1019.59 1019.18 1019.15 1019.41 1019.62 1019.28 1018.00 1017.90 1019.34 1020.34 1019.80 1019.42 1019.10 1018.85 1018.73 1018.38 1018.21 1018.11 1018.06 1018.49 1019.11 1019.48 1019.87 1020.12 1020.04 1020.18 1020.48 1020.80 1021.74 1022.64 1022.93 1023.09 1022.90 1022.97 1023.01 1023.40 1024.11 1024.56 1024.68
1022.12 1021.91 1021.62 1021.64 1021.54 1021.27 1020.85 1020.35 1019.91 1019.56 1019.30 1019.69 1020.09 1019.95 1019.18 1019.09 1019.78 1019.84 1019.91 1019.71 1019.32 1018.95 1018.73 1018.52 1018.57 1018.43 1018.56 1018.93 1019.17 1019.81 1020.20 1020.41 1020.43 1020.51 1020.64 1020.96 1022.13 1022.69 1022.92 1022.67 1022.72 1023.14 1022.98 1023.23 1023.58 1024.30 1023.66
1021.85 1021.73 1021.52 1021.45 1021.45 1021.31 1021.03 1020.62 1020.12 1019.71 1019.49 1019.81 1020.47 1020.99 1020.63 1020.47 1020.24 1019.80 1019.65 1019.54 1019.39 1019.18 1018.99 1018.83 1018.71 1018.69 1018.92 1019.44 1019.84 1020.31 1020.77 1021.01 1021.15 1021.28 1021.43 1021.90 1022.67 1023.07 1022.89 1022.69 1022.63 1022.48 1022.55 1022.86 1023.18 1022.59 1022.54
1021.57 1021.49 1021.30 1021.20 1021.30 1021.23 1021.00 1020.72 1020.33 1019.79 1019.53 1020.12 1020.92 1021.06 1020.99 1020.58 1020.20 1019.91 1019.77 1019.53 1019.48 1019.39 1019.22 1019.23 1019.27 1019.25 1019.25 1019.55 1019.89 1020.37 1020.86 1021.38 1021.52 1022.00 1022.30 1022.82 1023.38 1023.70 1023.42 1022.94 1022.83 1022.39 1021.85 1022.00 1021.81 1021.54 1021.03
1021.05 1021.23 1021.11 1021.05 1021.00 1021.15 1021.10 1020.76 1020.39 1019.93 1019.63 1020.38 1021.06 1020.96 1020.98 1020.95 1020.42 1020.15 1019.74 1019.39 1019.18 1019.18 1019.50 1019.39 1019.45 1019.65 1019.89 1020.09 1020.28 1020.67 1020.92 1021.29 1021.65 1022.23 1022.97 1023.45 1023.91 1024.66 1024.28 1023.55 1022.80 1021.65 1019.77 1019.86 1020.01 1019.95 1019.86
1020.60 1020.80 1020.87 1020.83 1020.81 1020.88 1021.12 1020.90 1020.58 1020.22 1019.94 1020.45 1021.14 1021.24 1021.31 1021.26 1020.85 1020.08 1019.49 1019.30 1019.43 1019.43 1019.48 1019.69 1019.78 1020.01 1020.45 1020.31 1020.65 1021.01 1021.45 1021.81 1022.18 1022.78 1023.02 1023.88 1024.58 1025.00 1025.21 1024.18 1022.44 1018.92 1018.50 1018.54 1018.94 1018.56 1018.61
1020.22 1020.45 1020.62 1020.68 1020.67 1020.66 1020.92 1020.93 1020.78 1020.48 1020.27 1020.61 1021.05 1021.18 1021.32 1021.20 1020.73 1020.15 1019.84 1019.78 1019.81 1019.84 1020.02 1020.25 1020.47 1020.64 1020.65 1020.84 1021.49 1021.92 1022.28 1022.47 1022.94 1023.46 1023.60 1023.83 1024.52 1025.15 1025.24 1024.48 1021.43 1018.23 1018.38 1018.25 1018.40 1017.55 1017.04
1019.82 1020.03 1020.27 1020.40 1020.53 1020.50 1020.66 1020.85 1020.88 1020.73 1020.50 1020.84 1021.17 1021.22 1021.18 1021.17 1020.59 1020.07 1020.08 1020.09 1020.41 1020.68 1020.86 1020.90 1021.01 1021.05 1021.05 1021.70 1022.27 1022.59 1022.68 1022.52 1023.17 1023.67 1023.95 1024.34 1024.55 1024.97 1025.40 1024.50 1021.94 1018.61 1017.77 1017.59 1017.72 1017.45 1016.95
1019.27 1019.60 1019.81 1020.02 1020.17 1020.40 1020.43 1020.60 1020.84 1020.85 1020.72 1020.84 1021.23 1021.35 1021.31 1021.32 1020.56 1020.28 1020.21 1020.26 1020.36 1020.85 1021.28 1021.43 1021.48 1021.62 1021.78 1022.49 1023.01 1023.18 1022.85 1022.59 1022.99 1023.45 1024.03 1024.44 1024.91 1024.95 1024.85 1023.87 1020.93 1018.13 1017.72 1017.62 1018.02 1017.75 1017.08
1018.68 1019.05 1019.38 1019.63 1019.76 1020.04 1020.31 1020.28 1020.53 1020.70 1020.76 1020.91 1021.18 1021.26 1021.46 1021.51 1020.92 1020.65 1020.47 1020.44 1020.63 1020.79 1021.09 1021.76 1022.07 1022.20 1022.62 1023.11 1023.39 1023.18 1023.13 1022.66 1022.82 1022.81 1023.10 1023.34 1023.86 1024.09 1024.04 1023.21 1020.39 1017.88 1018.07 1018.02 1017.28 1017.17 1017.38
1017.89 1018.40 1018.74 1019.12 1019.44 1019.60 1020.00 1020.24 1020.30 1020.51 1020.62 1020.77 1021.23 1021.16 1021.30 1021.59 1021.57 1021.26 1021.10 1021.06 1020.91 1020.65 1020.73 1021.28 1021.34 1021.35 1021.54 1022.44 1023.07 1023.08 1023.08 1023.02 1022.96 1023.07 1022.52 1022.44 1021.30 1021.59 1021.64 1019.72 1018.07 1017.67 1017.28 1016.89 1017.14 1017.34 1017.62
Thickness
5582 5576 5568 5559 5553 5547 5541 5534 5527 5519 5513 5511 5511 5511 5510 5511 5504 5497 5492 5487 5484 5486 5492 5499 5502 5509 5505 5504 5526 5544 5556 5572 5585 5597 5613 5623 5632 5640 5646 5653 5661 5660 5665 5671 5677 5683 5687
5580 5574 5566 5558 5553 5547 5539 5531 5526 5519 5512 5509 5508 5508 5510 5508 5508 5503 5504 5500 5494 5492 5495 5501 5500 5505 5510 5497 5534 5543 5556 5569 5581 5595 5610 5622 5631 5642 5641 5646 5654 5655 5657 5664 5670 5675 5679
5579 5571 5565 5558 5552 5545 5538 5530 5524 5519 5513 5507 5506 5506 5509 5506 5505 5505 5502 5504 5497 5499 5506 5500 5503 5510 5504 5517 5536 5546 5554 5564 5582 5598 5610 5623 5635 5638 5639 5639 5643 5650 5650 5659 5659 5663 5672
5577 5571 5565 5558 5551 5545 5538 5530 5524 5519 5514 5508 5507 5509 5508 5507 5506 5502 5500 5500 5501 5502 5505 5507 5513 5516 5516 5539 5544 5550 5554 5567 5584 5600 5611 5624 5631 5630 5636 5637 5636 5638 5639 5642 5653 5657 5666
5578 5572 5566 5559 5552 5546 5539 5531 5525 5520 5519 5514 5513 5511 5512 5510 5508 5505 5501 5503 5509 5508 5513 5515 5515 5520 5524 5543 5543 5552 5562 5571 5585 5597 5608 5620 5626 5618 5624 5620 5614 5619 5624 5637 5646 5652 5657
5580 5574 5568 5562 5555 5548 5541 5535 5528 5523 5520 5520 5519 5517 5514 5515 5515 5515 5514 5509 5512 5513 5515 5520 5526 5527 5533 5535 5546 5554 5566 5576 5584 5597 5604 5608 5604 5603 5599 5607 5599 5619 5621 5632 5640 5648 5654
5581 5575 5570 5565 5558 5552 5545 5539 5533 5528 5523 5521 5522 5521 5521 5521 5521 5523 5529 5526 5517 5521 5522 5515 5515 5526 5537 5544 5553 5556 5567 5579 5586 5591 5589 5592 5585 5578 5609 5618 5627 5625 5628 5632 5637 5643 5647
5583 5578 5573 5568 5563 5556 5550 5544 5537 5532 5530 5526 5523 5525 5525 5527 5528 5529 5526 5513 5508 5506 5512 5523 5522 5527 5539 5546 5546 5555 5573 5575 5577 5574 5589 5581 5577 5597 5603 5615 5621 5623 5620 5624 5632 5638 5640
5584 5581 5576 5571 5567 5561 5555 5549 5544 5538 5534 5533 5530 5527 5528 5531 5530 5527 5519 5514 5512 5509 5509 5525 5526 5530 5535 5543 5541 5549 5568 5570 5566 5569 5576 5579 5589 5599 5604 5603 5614 5606 5614 5620 5629 5630 5634
5584 5582 5579 5575 5571 5566 5561 5556 5551 5546 5540 5538 5537 5535 5534 5538 5534 5523 5516 5515 5516 5515 5485 5510 5528 5535 5544 5549 5547 5559 5567 5573 5565 5564 5572 5569 5584 5596 5597 5598 5604 5614 5616 5622 5622 5611 5609
5585 5583 5581 5579 5575 5571 5567 5562 5558 5553 5548 5543 5541 5540 5540 5539 5534 5528 5522 5520 5522 5520 5462 5522 5531 5550 5550 5552 5555 5561 5570 5573 5564 5564 5578 5572 5581 5587 5591 5595 5604 5608 5615 5616 5614 5607 5607
5585 5584 5583 5581 5578 5575 5571 5568 5564 5561 5555 5550 5546 5543 5542 5539 5536 5534 5532 5530 5527 5501 5475 5523 5538 5542 5551 5553 5559 5569 5570 5576 5569 5566 5568 5569 5583 5584 5592 5596 5603 5606 5608 5600 5588 5587 5569
5586 5584 5584 5583 5581 5579 5576 5573 5570 5567 5562 5557 5553 5551 5548 5543 5539 5540 5538 5533 5510 5482 5515 5528 5537 5546 5547 5550 5558 5564 5564 5562 5558 5548 5535 5563 5573 5583 5590 5596 5602 5602 5596 5548 5573 5546 5581
5586 5585 5584 5584 5582 5581 5580 5578 5574 5571 5569 5566 5561 5557 5554 5551 5547 5546 5543 5535 5501 5511 5529 5542 5547 5548 5548 5555 5563 5566 5568 5556 5567 5566 5529 5537 5545 5578 5585 5591 5598 5596 5595 5557 5585 5565 5571
5586 5585 5585 5584 5584 5583 5584 5582 5580 5576 5573 5572 5570 5563 5558 5556 5554 5552 5545 5510 5509 5520 5541 5550 5556 5551 5550 5561 5567 5567 5563 5564 5571 5577 5580 5552 5565 5578 5584 5589 5593 5595 5581 5586 5550 5511 5531
5586 5586 5585 5584 5585 5585 5586 5585 5583 5581 5579 5576 5572 5567 5564 5563 5561 5555 5538 5533 5542 5543 5553 5557 5557 5560 5558 5563 5569 5568 5567 5569 5577 5583 5586 5579 5561 5575 5582 5588 5589 5593 5584 5578 5550 5572 5582
5585 5585 5585 5584 5584 5585 5586 5587 5585 5584 5583 5580 5573 5573 5575 5573 5568 5555 5523 5534 5554 5561 5564 5566 5563 5565 5564 5568 5570 5566 5565 5571 5576 5585 5589 5584 5581 5569 5578 5579 5581 5580 5579 5572 5569 5565 5566
5582 5583 5583 5584 5583 5584 5586 5588 5588 5587 5586 5585 5575 5571 5580 5581 5563 5537 5543 5560 5562 5562 5565 5570 5571 5572 5573 5572 5569 5570 5572 5572 5572 5581 5583 5582 5567 5541 5580 5578 5581 5582 5584 5575 5568 5578 5547
5577 5579 5581 5581 5581 5582 5584 5587 5588 5589 5588 5582 5578 5575 5586 5584 5553 5540 5569 5568 5566 5566 5565 5568 5571 5573 5577 5574 5574 5572 5572 5574 5575 5579 5582 5583 5571 5537 5568 5571 5574 5576 5576 5575 5560 5551 5549
5573 5575 5578 5578 5578 5580 5582 5585 5587 5587 5587 5584 5579 5574 5582 5575 5562 5568 5574 5571 5572 5570 5571 5572 5571 5575 5576 5574 5570 5570 5571 5573 5576 5578 5580 5578 5561 5572 5567 5581 5569 5570 5569 5567 5570 5531 5564
5570 5573 5574 5575 5575 5577 5579 5582 5585 5587 5587 5584 5574 5575 5574 5574 5577 5578 5578 5575 5573 5575 5574 5574 5575 5575 5575 5572 5571 5569 5567 5568 5571 5571 5572 5568 5569 5554 5561 5566 5572 5577 5577 5560 5559 5569 5571
5566 5568 5571 5572 5573 5573 5575 5578 5581 5585 5587 5582 5581 5579 5568 5569 5576 5586 5578 5578 5577 5575 5576 5576 5575 5577 5577 5574 5575 5571 5567 5564 5571 5564 5567 5551 5558 5554 5539 5563 5559 5558 5560 5558 5562 5574 5567
5564 5565 5567 5569 5571 5571 5571 5574 5577 5581 5584 5577 5571 5573 5576 5571 5574 5579 5578 5583 5582 5580 5578 5578 5577 5573 5575 5574 5572 5568 5566 5561 5565 5560 5552 5550 5538 5526 5549 5538 5545 5561 5573 5574 5570 5564 5576
5561 5562 5564 5566 5567 5568 5567 5569 5573 5576 5579 5575 5569 5568 5572 5579 5571 5578 5587 5588 5583 5583 5581 5579 5578 5577 5571 5568 5565 5564 5557 5558 5556 5545 5546 5537 5532 5516 5506 5533 5527 5588 5580 5581 5569 5577 5567
5558 5558 5559 5561 5563 5564 5564 5565 5566 5570 5573 5572 5567 5567 5566 5571 5569 5581 5583 5581 5578 5578 5577 5575 5570 5566 5563 5565 5554 5555 5544 5558 5545 5533 5541 5535 5528 5518 5509 5502 5550 5594 5574 5569 5570 5584 5575
5553 5554 5554 5556 5556 5559 5560 5560 5560 5562 5565 5566 5564 5563 5563 5567 5571 5577 5576 5576 5567 5565 5566 5565 5562 5559 5560 5549 5550 5563 5558 5557 5552 5539 5527 5523 5520 5521 5504 5509 5549 5582 5579 5576 5574 5568 5574
5548 5550 5550 5550 5551 5551 5553 5554 5554 5555 5557 5559 5557 5557 5558 5561 5563 5570 5567 5568 5562 5558 5554 5555 5557 5557 5551 5538 5547 5539 5543 5545 5550 5537 5519 5518 5513 5510 5503 5499 5534 5559 5566 5563 5563 5569 5562
5541 5542 5544 5545 5546 5546 5546 5548 5547 5547 5549 5551 5550 5551 5550 5549 5555 5558 5561 5562 5559 5554 5556 5547 5548 5541 5531 5536 5532 5532 5528 5534 5533 5532 5519 5519 5505 5502 5499 5497 5514 5554 5551 5549 5553 5544 5545
5536 5536 5537 5537 5537 5540 5538 5539 5540 5539 5541 5542 5541 5542 5543 5540 5544 5542 5545 5546 5549 5553 5549 5540 5551 5540 5539 5527 5517 5515 5529 5513 5520 5534 5517 5522 5532 5516 5517 5532 5546 5539 5544 5546 5536 5536 5533